Tracking 18980 objects as of 20-Feb-2018
HD Live streaming from Space Station
objects crossing your sky now

JIKIKEN (EXOS-B)

Track JIKIKEN (EXOS-B) now!
10-day predictions
JIKIKEN (EXOS-B) is classified as:


NORAD ID: 11027
Int'l Code: 1978-087A
Perigee: 148.1 km
Apogee: 2,217.0 km
Inclination: 31.0 °
Period: 108.9 minutes
Semi major axis: 7553 km
RCS: 0.6865 m2 (medium)
Launch date: September 16, 1978
Source: Japan (JPN)
Launch site: KAGOSHIMA SPACE CENTER UNIVERSITY OF TOKYO (KSCUT)
aabbcc
Your satellite tracking list
Your tracking list is empty




NASA's NSSDC Master Catalog

Two Line Element Set (TLE):
1 11027U 78087A   18051.21568018  .01314192 -21088-5  32358-3 0  9997
2 11027  31.0331 137.3466 1369431 177.7429 183.0195 13.22440261468727
Source of the keplerian elements: AFSPC